Date String (YYYY-MM-DD hh:mm:ss) UTC,Instrument flags,Ambient pressure (hPa),Sample flow (lpm),Bypass flow (lpm),Sample temperature (°C),Ambient temperature (°C),ASC tube jacket temperature (°C),LED temperature (°C),Box temperature (°C),Sample RH (%),Span deviation,Mass concentration (μg/m³),Mass concentration (μg/m³),Mass concentration (μg/m³)
DateTimeUTC,F1_M11,P_M11,Q1_M11,Q2_M11,T1_M11,T2_M11,T3_M11,T4_M11,T5_M11,U1_M11,ZSPAN_M11,X0_M11,X2_M11,X1_M11
2022-08-12 02:00:00,,0828.3,5.01,0.00,29.3,28.0,00.0,38.1,31.3,26.4,0000.0,0016.16,0006.76,0005.50
2022-08-12 02:01:00,,0828.3,4.99,0.00,29.4,28.2,00.0,38.1,31.4,26.5,0000.0,0016.29,0006.75,0005.50
2022-08-12 02:02:00,,0828.3,4.99,0.00,29.4,28.3,00.0,38.1,31.4,26.4,0000.0,0016.34,0006.70,0005.49
2022-08-12 02:03:00,,0828.4,5.00,0.00,29.4,27.8,00.0,38.1,31.3,26.2,0000.0,0016.02,0006.73,0005.50
2022-08-12 02:04:00,,0828.3,5.01,0.00,29.4,27.2,00.0,38.1,31.2,26.3,0000.0,0015.65,0006.77,0005.50
2022-08-12 02:05:00,,0828.5,5.00,0.00,29.3,27.0,00.0,38.0,31.1,26.4,0000.0,0014.57,0006.76,0005.49
2022-08-12 02:06:00,,0828.4,4.99,0.00,29.2,27.1,00.0,38.0,31.0,26.6,0000.0,0014.79,0006.74,0005.50
2022-08-12 02:07:00,,0828.4,5.00,0.00,29.2,27.2,00.0,38.0,31.0,26.5,0000.0,0015.35,0006.82,0005.53
2022-08-12 02:08:00,,0828.4,4.99,0.00,29.2,27.4,00.0,38.0,31.1,26.4,0000.0,0015.37,0006.81,0005.55
2022-08-12 02:09:00,,0828.4,5.01,0.00,29.2,27.7,00.0,38.0,31.1,26.5,0000.0,0015.45,0006.82,0005.57
2022-08-12 02:10:00,,0828.5,5.01,0.00,29.3,27.9,00.0,38.0,31.2,26.4,0000.0,0015.48,0006.79,0005.56
2022-08-12 02:11:00,,0828.5,4.99,0.00,29.3,28.0,00.0,38.1,31.3,26.1,0000.0,0015.31,0006.75,0005.56
2022-08-12 02:12:00,,0828.5,5.00,0.00,29.4,28.2,00.0,38.1,31.4,25.9,0000.0,0015.26,0006.76,0005.56
2022-08-12 02:13:00,,0828.5,5.00,0.00,29.4,28.4,00.0,38.1,31.4,26.0,0000.0,0014.98,0006.84,0005.57
2022-08-12 02:14:00,,0828.5,4.99,0.00,29.5,28.4,00.0,38.1,31.4,26.0,0000.0,0015.11,0006.86,0005.56
2022-08-12 02:15:00,,0828.4,5.01,0.00,29.4,27.7,00.0,38.1,31.3,26.1,0000.0,0016.26,0006.84,0005.56
2022-08-12 02:16:00,,0828.5,5.00,0.00,29.4,27.2,00.0,38.1,31.2,26.3,0000.0,0018.17,0006.88,0005.56
2022-08-12 02:17:00,,0828.7,4.99,0.00,29.3,27.1,00.0,38.1,31.1,26.3,0000.0,0018.71,0006.90,0005.56
2022-08-12 02:18:00,,0829.0,5.00,0.00,29.3,27.2,00.0,38.0,31.0,26.4,0000.0,0018.03,0006.83,0005.54
2022-08-12 02:19:00,,0829.0,5.00,0.00,29.2,27.3,00.0,38.0,31.0,26.3,0000.0,0018.00,0006.81,0005.52
2022-08-12 02:20:00,,0829.1,5.00,0.00,29.2,27.5,00.0,38.0,31.0,25.9,0000.0,0018.05,0006.84,0005.50
2022-08-12 02:21:00,,0829.0,5.01,0.00,29.3,27.7,00.0,38.0,31.2,25.9,0000.0,0017.91,0006.86,0005.49
2022-08-12 02:22:00,,0829.1,4.99,0.00,29.3,27.9,00.0,38.1,31.3,25.7,0000.0,0018.14,0006.89,0005.49
2022-08-12 02:23:00,,0828.7,5.00,0.00,29.4,28.1,00.0,38.1,31.3,25.4,0000.0,0018.72,0006.90,0005.50
2022-08-12 02:24:00,,0828.8,5.01,0.00,29.4,28.3,00.0,38.1,31.4,25.2,0000.0,0019.31,0006.85,0005.47
2022-08-12 02:25:00,,0829.1,5.00,0.00,29.5,28.3,00.0,38.1,31.4,25.0,0000.0,0019.58,0006.76,0005.43
2022-08-12 02:26:00,,0829.0,5.00,0.00,29.4,27.7,00.0,38.1,31.3,25.1,0000.0,0018.97,0006.75,0005.40
2022-08-12 02:27:00,,0829.2,5.00,0.00,29.4,27.2,00.0,38.1,31.1,25.3,0000.0,0017.36,0006.70,0005.39
2022-08-12 02:28:00,,0829.2,4.99,0.00,29.3,27.0,00.0,38.1,31.1,25.5,0000.0,0017.44,0006.67,0005.37
2022-08-12 02:29:00,,0829.1,5.01,0.00,29.3,27.1,00.0,38.0,31.0,25.8,0000.0,0017.98,0006.66,0005.35
2022-08-12 02:30:00,,0828.7,5.00,0.00,29.2,27.2,00.0,38.0,31.0,25.9,0000.0,0019.70,0006.66,0005.33
2022-08-12 02:31:00,,0828.7,4.99,0.00,29.2,27.4,00.0,38.0,31.0,25.8,0000.0,0020.98,0006.65,0005.33
2022-08-12 02:32:00,,0828.7,4.99,0.00,29.3,27.6,00.0,38.0,31.1,25.8,0000.0,0021.79,0006.67,0005.34
2022-08-12 02:33:00,,0828.7,5.00,0.00,29.3,27.8,00.0,38.0,31.2,25.8,0000.0,0022.31,0006.70,0005.33
2022-08-12 02:34:00,,0828.8,5.01,0.00,29.3,28.0,00.0,38.1,31.3,25.7,0000.0,0021.31,0006.70,0005.31
2022-08-12 02:35:00,,0829.1,5.00,0.00,29.4,28.2,00.0,38.1,31.4,25.7,0000.0,0020.37,0006.68,0005.31
2022-08-12 02:36:00,,0829.2,5.00,0.00,29.4,28.4,00.0,38.1,31.4,25.5,0000.0,0019.77,0006.67,0005.31
2022-08-12 02:37:00,,0829.3,5.00,0.00,29.5,28.5,00.0,38.1,31.5,25.3,0000.0,0019.60,0006.68,0005.31
2022-08-12 02:38:00,,0829.2,5.02,0.00,29.5,28.1,00.0,38.1,31.4,25.1,0000.0,0019.62,0006.66,0005.30
2022-08-12 02:39:00,,0829.3,5.00,0.00,29.4,27.4,00.0,38.1,31.2,25.2,0000.0,0020.21,0006.65,0005.29
2022-08-12 02:40:00,,0829.3,5.00,0.00,29.4,27.2,00.0,38.1,31.1,25.4,0000.0,0019.98,0006.69,0005.30
2022-08-12 02:41:00,,0829.2,5.00,0.00,29.3,27.2,00.0,38.1,31.0,25.5,0000.0,0018.97,0006.70,0005.30
2022-08-12 02:42:00,,0829.3,5.00,0.00,29.2,27.3,00.0,38.1,31.0,25.6,0000.0,0017.67,0006.69,0005.29
2022-08-12 02:43:00,,0829.1,5.00,0.00,29.3,27.5,00.0,38.1,31.0,25.7,0000.0,0017.25,0006.62,0005.28
2022-08-12 02:44:00,,0828.8,5.01,0.00,29.3,27.7,00.0,38.1,31.1,25.4,0000.0,0016.65,0006.55,0005.27
2022-08-12 02:45:00,,0828.8,4.99,0.00,29.3,27.9,00.0,38.1,31.2,25.2,0000.0,0018.32,0006.54,0005.27
2022-08-12 02:46:00,,0828.8,4.99,0.00,29.3,28.0,00.0,38.1,31.3,25.3,0000.0,0018.34,0006.51,0005.27
2022-08-12 02:47:00,,0828.8,5.00,0.00,29.4,28.2,00.0,38.1,31.4,25.5,0000.0,0019.54,0006.53,0005.28
2022-08-12 02:48:00,,0829.0,5.03,0.00,29.4,28.4,00.0,38.1,31.4,25.4,0000.0,0019.28,0006.50,0005.30
2022-08-12 02:49:00,,0829.0,5.00,0.00,29.5,28.4,00.0,38.1,31.5,25.7,0000.0,0019.83,0006.49,0005.30
2022-08-12 02:50:00,,0828.9,5.01,0.00,29.5,27.9,00.0,38.1,31.3,27.1,0000.0,0018.70,0006.52,0005.32
2022-08-12 02:51:00,,0829.0,5.00,0.00,29.4,27.2,00.0,38.1,31.1,27.0,0000.0,0018.13,0006.50,0005.33
2022-08-12 02:52:00,,0829.0,5.00,0.00,29.4,27.1,00.0,38.1,31.1,26.6,0000.0,0017.66,0006.48,0005.33
2022-08-12 02:53:00,,0829.0,4.99,0.00,29.3,27.1,00.0,38.1,31.0,26.6,0000.0,0016.75,0006.44,0005.33
2022-08-12 02:54:00,,0829.1,5.01,0.00,29.2,27.2,00.0,38.0,31.0,26.5,0000.0,0016.45,0006.44,0005.33
2022-08-12 02:55:00,,0829.1,4.99,0.00,29.2,27.4,00.0,38.0,31.1,26.4,0000.0,0016.85,0006.48,0005.34
2022-08-12 02:56:00,,0829.0,5.00,0.00,29.3,27.6,00.0,38.1,31.1,26.7,0000.0,0015.10,0006.46,0005.35
2022-08-12 02:57:00,,0829.1,5.00,0.00,29.3,27.8,00.0,38.1,31.2,26.6,0000.0,0015.13,0006.49,0005.36
2022-08-12 02:58:00,,0829.2,4.99,0.00,29.3,28.0,00.0,38.1,31.3,26.3,0000.0,0015.52,0006.50,0005.36
2022-08-12 02:59:00,,0829.2,5.00,0.00,29.4,28.2,00.0,38.1,31.3,26.1,0000.0,0015.24,0006.53,0005.37
